Weather History for KOKK - February, 2013

Change the Weather History Date:

Sunday, February 3, 2013

  Actual Average Record
Temperature  
Mean Temperature 16 °F -  
Max Temperature 21 °F - - ()
Min Temperature 10 °F - - ()
Degree Days  
Heating Degree Days 50    
Moisture  
Dew Point 12 °F    
Average Humidity 83    
Maximum Humidity 93    
Minimum Humidity 73    
Precipitation  
Precipitation 0.00 in - - ()
Sea Level Pressure  
Sea Level Pressure 30.00 in    
Wind  
Wind Speed 11 mph (West)    
Max Wind Speed 22 mph    
Max Gust Speed 25 mph    
Visibility 9 miles    
Events      
T = Trace of Precipitation, MM = Missing Value Source: NWS Daily Summary

Daily Weather History Graph

Daily Weather History Graph

Search for Another Location

Airport or City:

Trip Planner

Search our weather history database for the weather conditions in past years. The results will help you decide how hot, cold, wet, or windy it might be!

Date:

Astronomy

Feb. 03, 2013 Rise Set
Actual Time 6:51 AM CST 5:05 PM CST
Civil Twilight 6:22 AM CST 5:33 PM CST
Nautical Twilight 5:50 AM CST 6:06 PM CST
Astronomical Twilight 5:18 AM CST 6:38 PM CST
Moon 12:18 AM CST (2/3) 10:41 AM CST (2/3)
Length of Visible Light 11h 10m
Length of Day
10h 13m
Waning Gibbous, 48% of the Moon is Illuminated
Feb 3
Waning Gibbous
Feb 10
New
Feb 17
First Quarter
Feb 25
Full
Mar 4
Last Quarter

Hourly Weather History & Observations

Time (CST) Temp. Windchill Dew Point Humidity Pressure Visibility Wind Dir Wind Speed Gust Speed Precip Events Conditions
12:15 AM 15.8 °F 2.7 °F 12.2 °F 86% 30.00 in 10.0 mi West 11.5 mph - N/A   Overcast
12:55 AM 15.8 °F 3.4 °F 10.4 °F 79% 29.99 in 10.0 mi West 10.4 mph - N/A   Overcast
1:15 AM 14.0 °F 2.0 °F 10.4 °F 86% 29.98 in 10.0 mi West 9.2 mph - N/A   Overcast
1:35 AM 14.0 °F 1.2 °F 8.6 °F 79% 29.99 in 10.0 mi West 10.4 mph - N/A   Overcast
1:55 AM 12.2 °F -0.2 °F 8.6 °F 85% 29.98 in 10.0 mi West 9.2 mph - N/A   Overcast
2:15 AM 12.2 °F -1.8 °F 8.6 °F 85% 29.98 in 10.0 mi West 11.5 mph - N/A   Overcast
2:35 AM 12.2 °F -1.8 °F 8.6 °F 85% 29.97 in 10.0 mi West 11.5 mph - N/A   Overcast
2:55 AM 12.2 °F 1.7 °F 8.6 °F 85% 29.96 in 10.0 mi WNW 6.9 mph - N/A   Overcast
3:15 AM 12.2 °F 0.7 °F 8.6 °F 85% 29.96 in 10.0 mi WNW 8.1 mph - N/A   Overcast
3:35 AM 12.2 °F -1.0 °F 8.6 °F 85% 29.95 in 10.0 mi WNW 10.4 mph - N/A   Overcast
3:55 AM 12.2 °F -0.2 °F 6.8 °F 79% 29.95 in 10.0 mi WNW 9.2 mph - N/A   Mostly Cloudy
4:15 AM 10.4 °F -0.4 °F 6.8 °F 85% 29.94 in 10.0 mi WNW 6.9 mph - N/A   Partly Cloudy
4:35 AM 10.4 °F -3.3 °F 6.8 °F 85% 29.94 in 10.0 mi West 10.4 mph - N/A   Clear
4:55 AM 10.4 °F -2.4 °F 6.8 °F 85% 29.94 in 10.0 mi West 9.2 mph - N/A   Partly Cloudy
5:15 AM 12.2 °F -0.2 °F 8.6 °F 85% 29.94 in 10.0 mi West 9.2 mph - N/A   Mostly Cloudy
5:35 AM 12.2 °F 0.7 °F 6.8 °F 79% 29.94 in 10.0 mi West 8.1 mph - N/A   Mostly Cloudy
5:55 AM 12.2 °F -0.2 °F 6.8 °F 79% 29.94 in 10.0 mi West 9.2 mph - N/A   Mostly Cloudy
6:15 AM 12.2 °F -0.2 °F 6.8 °F 79% 29.94 in 10.0 mi West 9.2 mph - N/A   Mostly Cloudy
6:35 AM 12.2 °F -0.2 °F 6.8 °F 79% 29.95 in 10.0 mi West 9.2 mph - N/A   Mostly Cloudy
6:55 AM 12.2 °F -1.8 °F 6.8 °F 79% 29.96 in 10.0 mi West 11.5 mph - N/A   Overcast
7:15 AM 12.2 °F -2.5 °F 8.6 °F 85% 29.97 in 10.0 mi WNW 12.7 mph - N/A   Overcast
7:35 AM 12.2 °F -1.0 °F 8.6 °F 85% 29.97 in 10.0 mi WNW 10.4 mph - N/A   Overcast
7:55 AM 12.2 °F -0.2 °F 8.6 °F 85% 29.97 in 10.0 mi West 9.2 mph - N/A   Overcast
8:15 AM 12.2 °F -1.8 °F 8.6 °F 85% 29.98 in 10.0 mi WNW 11.5 mph - N/A   Mostly Cloudy
8:35 AM 14.0 °F 0.5 °F 10.4 °F 86% 29.97 in 9.0 mi West 11.5 mph - N/A   Scattered Clouds
8:55 AM 14.0 °F 0.5 °F 10.4 °F 86% 29.97 in 8.0 mi West 11.5 mph - N/A   Scattered Clouds
9:15 AM 14.0 °F 1.2 °F 10.4 °F 86% 29.97 in 7.0 mi West 10.4 mph - N/A   Scattered Clouds
9:35 AM 15.8 °F 4.2 °F 10.4 °F 79% 29.97 in 9.0 mi West 9.2 mph - N/A   Mostly Cloudy
9:55 AM 15.8 °F 3.4 °F 12.2 °F 86% 29.97 in 10.0 mi West 10.4 mph - N/A   Overcast
10:15 AM 15.8 °F 2.1 °F 12.2 °F 86% 29.98 in 9.0 mi West 12.7 mph - N/A   Overcast
10:35 AM 17.6 °F 5.0 °F 12.2 °F 79% 29.97 in 10.0 mi WNW 11.5 mph - N/A   Mostly Cloudy
10:55 AM 17.6 °F 4.3 °F 12.2 °F 79% 29.98 in 7.0 mi West 12.7 mph - N/A   Mostly Cloudy
11:15 AM 17.6 °F 5.0 °F 12.2 °F 79% 29.97 in 10.0 mi West 11.5 mph - N/A   Overcast
11:35 AM 17.6 °F 4.3 °F 12.2 °F 79% 29.97 in 10.0 mi West 12.7 mph - N/A   Overcast
11:55 AM 17.6 °F 3.7 °F 12.2 °F 79% 29.97 in 8.0 mi West 13.8 mph - N/A   Overcast
12:15 PM 19.4 °F 6.6 °F 14.0 °F 80% 29.98 in 9.0 mi West 12.7 mph - N/A   Overcast
12:35 PM 19.4 °F 6.0 °F 15.8 °F 86% 29.98 in 10.0 mi West 13.8 mph - N/A   Overcast
12:55 PM 19.4 °F 5.5 °F 15.8 °F 86% 29.98 in 8.0 mi West 15.0 mph - N/A   Overcast
1:15 PM 19.4 °F 6.0 °F 17.6 °F 93% 29.98 in 3.0 mi West 13.8 mph - N/A   Overcast
1:35 PM 21.2 °F 8.3 °F 17.6 °F 86% 29.98 in 2.5 mi WNW 13.8 mph - N/A   Overcast
1:55 PM 21.2 °F 7.8 °F 19.4 °F 93% 29.99 in 3.0 mi West 15.0 mph - N/A   Overcast
2:15 PM 21.2 °F 8.3 °F 19.4 °F 93% 29.99 in 3.0 mi WNW 13.8 mph - N/A   Overcast
2:35 PM 21.2 °F 7.8 °F 19.4 °F 93% 30.00 in 3.0 mi West 15.0 mph - N/A   Overcast
2:55 PM 21.2 °F 5.2 °F 17.6 °F 86% 30.00 in 9.0 mi WNW 21.9 mph 25.3 mph N/A   Mostly Cloudy
3:15 PM 21.2 °F 5.2 °F 17.6 °F 86% 30.01 in 8.0 mi WNW 21.9 mph - N/A   Overcast
3:35 PM 21.2 °F 6.0 °F 17.6 °F 86% 30.02 in 5.0 mi WNW 19.6 mph 25.3 mph N/A   Overcast
3:55 PM 21.2 °F 6.4 °F 15.8 °F 80% 30.02 in 7.0 mi WNW 18.4 mph - N/A   Overcast
4:15 PM 21.2 °F 6.0 °F 15.8 °F 80% 30.02 in 10.0 mi WNW 19.6 mph 25.3 mph N/A   Overcast
4:35 PM 21.2 °F 6.4 °F 15.8 °F 80% 30.03 in 9.0 mi WNW 18.4 mph - N/A   Overcast
4:55 PM 19.4 °F 5.5 °F 15.8 °F 86% 30.04 in 10.0 mi WNW 15.0 mph - N/A   Scattered Clouds
5:15 PM 19.4 °F 6.0 °F 15.8 °F 86% 30.03 in 10.0 mi WNW 13.8 mph - N/A   Clear
5:35 PM 19.4 °F 7.9 °F 14.0 °F 80% 30.03 in 10.0 mi WNW 10.4 mph - N/A   Clear
5:55 PM 19.4 °F 8.6 °F 14.0 °F 80% 30.04 in 10.0 mi West 9.2 mph - N/A   Clear
6:15 PM 19.4 °F 7.9 °F 14.0 °F 80% 30.05 in 10.0 mi West 10.4 mph - N/A   Clear
6:35 PM 17.6 °F 7.3 °F 14.0 °F 86% 30.05 in 10.0 mi West 8.1 mph - N/A   Clear
6:55 PM 15.8 °F 6.1 °F 12.2 °F 86% 30.05 in 10.0 mi WSW 6.9 mph - N/A   Clear
7:15 PM 15.8 °F 6.1 °F 10.4 °F 79% 30.04 in 10.0 mi WSW 6.9 mph - N/A   Clear
7:35 PM 15.8 °F 6.1 °F 12.2 °F 86% 30.04 in 10.0 mi WSW 6.9 mph - N/A   Mostly Cloudy
7:55 PM 15.8 °F 6.1 °F 10.4 °F 79% 30.04 in 10.0 mi SW 6.9 mph - N/A   Partly Cloudy
8:15 PM 15.8 °F 7.2 °F 10.4 °F 79% 30.04 in 10.0 mi SW 5.8 mph - N/A   Mostly Cloudy
8:35 PM 17.6 °F 10.7 °F 12.2 °F 79% 30.05 in 10.0 mi SW 4.6 mph - N/A   Mostly Cloudy
8:55 PM 17.6 °F 10.7 °F 15.8 °F 93% 30.05 in 10.0 mi SW 4.6 mph - N/A   Overcast
9:15 PM 17.6 °F 9.3 °F 14.0 °F 86% 30.05 in 10.0 mi SW 5.8 mph - N/A   Mostly Cloudy
9:35 PM 17.6 °F 9.3 °F 12.2 °F 79% 30.05 in 10.0 mi SW 5.8 mph - N/A   Mostly Cloudy
9:55 PM 17.6 °F 7.3 °F 10.4 °F 73% 30.05 in 10.0 mi WSW 8.1 mph - N/A   Mostly Cloudy
10:15 PM 19.4 °F 7.9 °F 15.8 °F 86% 30.06 in 10.0 mi WSW 10.4 mph - N/A   Overcast
10:35 PM 21.2 °F 10.1 °F 15.8 °F 80% 30.06 in 10.0 mi WSW 10.4 mph - N/A   Overcast
10:55 PM 21.2 °F 10.9 °F 15.8 °F 80% 30.05 in 10.0 mi WSW 9.2 mph - N/A   Overcast
11:15 PM 19.4 °F 9.5 °F 14.0 °F 80% 30.05 in 10.0 mi WSW 8.1 mph - N/A   Partly Cloudy
11:35 PM 19.4 °F 9.5 °F 15.8 °F 86% 30.05 in 10.0 mi West 8.1 mph - N/A   Clear
11:55 PM 21.2 °F 11.7 °F 15.8 °F 80% 30.05 in 10.0 mi West 8.1 mph - N/A   Clear